Flag for Germany Weather past 2 weeks in Giessen, Hesse, Germany

Now
46 °F

Low clouds.


Feels Like: 45 °F
Forecast: 40 / 52 °F
Wind: 3 mph from South

Location: Giessen

Current Time: Dec 18, 2014 at 8:49:33 AM

Latest Report: Dec 18, 2014 at 8:00 AM


Visibility: 6 mi

Pressure: 29.90 "Hg

Humidity: 99%

Dew point: 46 °F

Location of GiessenLocation

Historic Weather in Giessen — Graph

°F

Giessen temperature yesterday

Maximum temperature yesterday: 45 °F (at 11:00 PM)
Minimum temperature yesterday: 33 °F (at 5:00 AM)
Average temperature yesterday: 37 °F

Past Weeks' High & Low Weather Summary

 TemperatureHumidityPressure
High48 °F (Dec 12, 7:00 PM)100% (Dec 5, 3:00 AM)30.44 "Hg (Dec 5, 3:00 AM)
Low27 °F (Dec 9, 3:00 AM)73% (Dec 7, 3:00 PM)29.54 "Hg (Dec 12, 6:00 PM)
Average37 °F96%30.03 "Hg
* Reported Dec 3 8:00 AM — Dec 18 8:00 AM, Giessen, Weather by CustomWeather, © 2014

Note: Actual official high and low records may vary slightly from our data, if they occured in-between our weather recording intervals... More about our weather records

Advertising

Giessen weather history for previous 24 hours

 ConditionsComfort  
Time TempWeatherWind HumidityBarometerVisibility
8:00 AM
Dec 18
46 °FLow clouds.3 mph99%29.90 "Hg6 mi
7:00 AM46 °FLow clouds.3 mph98%29.89 "Hg6 mi
6:00 AM47 °FLow clouds.3 mph99%29.89 "Hg14 mi
5:00 AM48 °FLow clouds.3 mph96%29.89 "Hg31 mi
4:00 AM47 °FLow clouds.5 mph99%29.89 "Hg8 mi
3:00 AM46 °FLow clouds.3 mph100%29.90 "Hg3 mi
2:00 AM46 °FFog.5 mph100%29.89 "Hg4 mi
1:00 AM45 °FLow clouds.3 mph100%29.88 "Hg4 mi
12:00 AM45 °FLow clouds.5 mph100%29.86 "Hg7 mi
11:00 PM
Dec 17
45 °FDrizzle. Low clouds.6 mph100%29.85 "Hg5 mi
10:00 PM44 °FLow clouds.6 mph100%29.83 "Hg3 mi
9:00 PM42 °FLow clouds.1 mph100%29.81 "Hg2 mi
8:00 PM40 °FDrizzle. Low clouds.1 mph100%29.79 "Hg2 mi
7:00 PM40 °FLow clouds.2 mph100%29.76 "Hg2 mi
6:00 PM40 °FDrizzle. Low clouds.2 mph100%29.74 "Hg3 mi
5:00 PM40 °FLow clouds.5 mph100%29.72 "Hg2 mi
4:00 PM39 °FDrizzle. Low clouds.5 mph100%29.71 "Hg2 mi
3:00 PM39 °FDrizzle. Low clouds.6 mph98%29.69 "Hg5 mi
2:00 PM39 °FLight freezing rain. Low clouds.6 mph98%29.70 "Hg12 mi
1:00 PM37 °FLight rain. Low clouds.6 mph100%29.72 "Hg5 mi
12:00 PM37 °FLight freezing rain. Low clouds.8 mph98%29.75 "Hg4 mi
11:00 AM38 °FLight freezing rain. Low clouds.8 mph96%29.78 "HgN/A
10:00 AM37 °FLight rain. Overcast.6 mph97%29.81 "HgN/A
9:00 AM36 °FOvercast.5 mph98%29.85 "HgN/A
8:00 AM34 °FLow clouds.1 mph100%29.88 "HgN/A
Weather by CustomWeather, © 2014

See weather overviewHow to use our weather pages